When you browse on this site, cookies collect data to enhance your experience and personalize the content and advertising you see.
Visit our Privacy Policy to learn more. By continuing to use the site, you agree to this use of cookies and data.

Meteo orario Jalalabad

Oggi, 12 Agosto, Mercoledi

Tempo Temperatura Precipitazioni Vento Pressione Umidità
00:00 +36°C° 0 mm 2 m/s 703 mm Hg 53%
01:00 +36°C° 0 mm 2 m/s 703 mm Hg 55%
02:00 +34°C° 0 mm 1 m/s 703 mm Hg 57%
03:00 +34°C° 0 mm 1 m/s 703 mm Hg 58%
04:00 +34°C° 0 mm 1 m/s 703 mm Hg 59%
05:00 +33°C° 0 mm 1 m/s 702 mm Hg 60%
06:00 +34°C° 0 mm 1 m/s 703 mm Hg 58%
07:00 +34°C° 0 mm 1 m/s 703 mm Hg 55%
08:00 +34°C° 0 mm 1 m/s 703 mm Hg 53%
09:00 +36°C° 0 mm 1 m/s 703 mm Hg 46%
10:00 +37°C° 0 mm 1 m/s 703 mm Hg 40%
11:00 +39°C° 0 mm 1 m/s 703 mm Hg 33%
12:00 +40°C° 0 mm 1 m/s 703 mm Hg 29%
13:00 +41°C° 0 mm 1 m/s 703 mm Hg 25%
14:00 +42°C° 0 mm 2 m/s 702 mm Hg 21%
15:00 +43°C° 0 mm 2 m/s 702 mm Hg 21%
16:00 +44°C° 0 mm 3 m/s 702 mm Hg 21%
17:00 +44°C° 0 mm 3 m/s 701 mm Hg 22%
18:00 +43°C° 0 mm 3 m/s 702 mm Hg 28%
19:00 +42°C° 0 mm 3 m/s 702 mm Hg 34%
20:00 +41°C° 0 mm 4 m/s 703 mm Hg 40%
21:00 +39°C° 0 mm 3 m/s 703 mm Hg 42%
22:00 +38°C° 0 mm 3 m/s 703 mm Hg 44%
23:00 +38°C° 0 mm 2 m/s 703 mm Hg 47%

Domani, 13 Agosto, Giovedi

Tempo Temperatura Precipitazioni Vento Pressione Umidità
00:00 +37°C° 0 mm 2 m/s 703 mm Hg 49%
01:00 +37°C° 0 mm 2 m/s 703 mm Hg 51%
02:00 +35°C° 0 mm 1 m/s 703 mm Hg 53%
03:00 +35°C° 0.1 mm 1 m/s 703 mm Hg 53%
04:00 +34°C° 0.1 mm 1 m/s 702 mm Hg 53%
05:00 +34°C° 0.1 mm 1 m/s 702 mm Hg 53%
06:00 +34°C° 0 mm 1 m/s 702 mm Hg 49%
07:00 +35°C° 0 mm 1 m/s 703 mm Hg 45%
08:00 +35°C° 0 mm 1 m/s 703 mm Hg 41%
09:00 +37°C° 0 mm 1 m/s 703 mm Hg 32%
10:00 +39°C° 0 mm 2 m/s 702 mm Hg 24%
11:00 +41°C° 0 mm 2 m/s 702 mm Hg 15%
12:00 +42°C° 0 mm 2 m/s 702 mm Hg 12%
13:00 +43°C° 0 mm 2 m/s 702 mm Hg 10%
14:00 +45°C° 0 mm 2 m/s 702 mm Hg 8%
15:00 +45°C° 0 mm 2 m/s 701 mm Hg 7%
16:00 +46°C° 0 mm 2 m/s 701 mm Hg 7%
17:00 +46°C° 0 mm 2 m/s 701 mm Hg 6%
18:00 +43°C° 0 mm 2 m/s 701 mm Hg 13%
19:00 +41°C° 0 mm 2 m/s 701 mm Hg 19%
20:00 +40°C° 0 mm 3 m/s 702 mm Hg 26%
21:00 +39°C° 0 mm 2 m/s 702 mm Hg 30%
22:00 +38°C° 0 mm 2 m/s 702 mm Hg 34%
23:00 +36°C° 0 mm 1 m/s 703 mm Hg 38%

Dopodomani, 14 Agosto, Venerdi

Tempo Temperatura Precipitazioni Vento Pressione Umidità
00:00 +36°C° 0 mm 1 m/s 703 mm Hg 38%
01:00 +35°C° 0 mm 1 m/s 703 mm Hg 37%
02:00 +35°C° 0 mm 1 m/s 703 mm Hg 37%
03:00 +34°C° 0 mm 1 m/s 703 mm Hg 33%
04:00 +34°C° 0 mm 1 m/s 703 mm Hg 30%
05:00 +33°C° 0 mm 1 m/s 702 mm Hg 27%
06:00 +34°C° 0 mm 1 m/s 703 mm Hg 24%
07:00 +35°C° 0 mm 1 m/s 703 mm Hg 21%
08:00 +35°C° 0 mm 1 m/s 703 mm Hg 17%
09:00 +36°C° 0 mm 1 m/s 703 mm Hg 16%
10:00 +39°C° 0 mm 1 m/s 703 mm Hg 14%
11:00 +40°C° 0 mm 1 m/s 703 mm Hg 12%
12:00 +41°C° 0 mm 1 m/s 702 mm Hg 12%
13:00 +42°C° 0 mm 1 m/s 702 mm Hg 11%
14:00 +42°C° 0 mm 1 m/s 702 mm Hg 10%
15:00 +43°C° 0 mm 2 m/s 701 mm Hg 10%
16:00 +43°C° 0 mm 2 m/s 701 mm Hg 10%
17:00 +45°C° 0 mm 2 m/s 701 mm Hg 9%
18:00 +43°C° 0 mm 3 m/s 701 mm Hg 19%
19:00 +40°C° 0 mm 3 m/s 701 mm Hg 28%
20:00 +38°C° 0 mm 4 m/s 701 mm Hg 38%
21:00 +38°C° 0 mm 3 m/s 701 mm Hg 42%
22:00 +37°C° 0 mm 3 m/s 702 mm Hg 47%
23:00 +36°C° 0 mm 2 m/s 702 mm Hg 51%

15 Agosto, Sabato

Tempo Temperatura Precipitazioni Vento Pressione Umidità
00:00 +36°C° 0 mm 2 m/s 702 mm Hg 54%
01:00 +36°C° 0 mm 2 m/s 702 mm Hg 56%
02:00 +34°C° 0 mm 1 m/s 702 mm Hg 59%
03:00 +34°C° 0 mm 1 m/s 702 mm Hg 60%
04:00 +33°C° 0 mm 1 m/s 701 mm Hg 61%
05:00 +31°C° 0 mm 0 m/s 701 mm Hg 62%
06:00 +31°C° 0 mm 0 m/s 701 mm Hg 59%
07:00 +32°C° 0 mm 0 m/s 701 mm Hg 57%
08:00 +34°C° 0 mm 1 m/s 701 mm Hg 55%
09:00 +36°C° 0 mm 1 m/s 701 mm Hg 46%
10:00 +37°C° 0 mm 1 m/s 701 mm Hg 38%
11:00 +39°C° 0 mm 1 m/s 701 mm Hg 29%
12:00 +41°C° 0 mm 1 m/s 701 mm Hg 24%
13:00 +42°C° 0 mm 1 m/s 701 mm Hg 19%
14:00 +43°C° 0 mm 1 m/s 701 mm Hg 15%
15:00 +43°C° 0 mm 1 m/s 700 mm Hg 14%
16:00 +45°C° 0 mm 2 m/s 700 mm Hg 13%
17:00 +45°C° 0 mm 2 m/s 700 mm Hg 12%
18:00 +43°C° 0 mm 2 m/s 700 mm Hg 20%
19:00 +42°C° 0 mm 3 m/s 701 mm Hg 28%
20:00 +39°C° 0 mm 3 m/s 701 mm Hg 36%
21:00 +39°C° 0 mm 3 m/s 701 mm Hg 40%
22:00 +38°C° 0 mm 3 m/s 701 mm Hg 44%
23:00 +37°C° 0 mm 2 m/s 702 mm Hg 49%

16 Agosto, Domenica

Tempo Temperatura Precipitazioni Vento Pressione Umidità
00:00 +37°C° 0 mm 2 m/s 702 mm Hg 51%
01:00 +36°C° 0 mm 2 m/s 702 mm Hg 53%
02:00 +35°C° 0 mm 1 m/s 701 mm Hg 56%
03:00 +34°C° 0 mm 1 m/s 702 mm Hg 57%
04:00 +34°C° 0 mm 1 m/s 702 mm Hg 59%
05:00 +34°C° 0 mm 1 m/s 702 mm Hg 60%
06:00 +34°C° 0 mm 1 m/s 702 mm Hg 58%
07:00 +34°C° 0 mm 1 m/s 702 mm Hg 57%
08:00 +35°C° 0 mm 1 m/s 702 mm Hg 55%
09:00 +36°C° 0 mm 1 m/s 702 mm Hg 47%
10:00 +39°C° 0 mm 1 m/s 702 mm Hg 39%
11:00 +40°C° 0 mm 1 m/s 702 mm Hg 31%
12:00 +41°C° 0 mm 1 m/s 702 mm Hg 26%
13:00 +42°C° 0 mm 1 m/s 702 mm Hg 20%
14:00 +44°C° 0 mm 1 m/s 701 mm Hg 15%
15:00 +45°C° 0 mm 2 m/s 701 mm Hg 14%
16:00 +45°C° 0 mm 2 m/s 701 mm Hg 14%
17:00 +46°C° 0 mm 3 m/s 701 mm Hg 13%
18:00 +44°C° 0 mm 3 m/s 701 mm Hg 21%
19:00 +42°C° 0 mm 3 m/s 701 mm Hg 29%
20:00 +40°C° 0 mm 3 m/s 701 mm Hg 37%
21:00 +39°C° 0 mm 3 m/s 702 mm Hg 41%
22:00 +38°C° 0 mm 3 m/s 702 mm Hg 45%
23:00 +38°C° 0 mm 3 m/s 702 mm Hg 49%

17 Agosto, Lunedi

Tempo Temperatura Precipitazioni Vento Pressione Umidità
00:00 +37°C° 0 mm 2 m/s 702 mm Hg 52%
01:00 +37°C° 0 mm 2 m/s 702 mm Hg 55%
02:00 +36°C° 0 mm 2 m/s 702 mm Hg 58%
03:00 +35°C° 0 mm 1 m/s 702 mm Hg 60%
04:00 +34°C° 0 mm 1 m/s 702 mm Hg 61%
05:00 +34°C° 0 mm 1 m/s 702 mm Hg 63%
06:00 +34°C° 0 mm 1 m/s 702 mm Hg 61%
07:00 +34°C° 0 mm 1 m/s 702 mm Hg 60%
08:00 +36°C° 0 mm 2 m/s 702 mm Hg 59%
09:00 +37°C° 0 mm 2 m/s 702 mm Hg 52%
10:00 +38°C° 0 mm 2 m/s 702 mm Hg 44%
11:00 +40°C° 0 mm 2 m/s 702 mm Hg 37%
12:00 +42°C° 0 mm 3 m/s 702 mm Hg 33%
13:00 +43°C° 0 mm 3 m/s 701 mm Hg 29%
14:00 +44°C° 0 mm 3 m/s 701 mm Hg 25%
15:00 +44°C° 0 mm 4 m/s 701 mm Hg 26%
16:00 +45°C° 0 mm 5 m/s 700 mm Hg 27%
17:00 +45°C° 0 mm 5 m/s 700 mm Hg 28%
18:00 +42°C° 0 mm 5 m/s 700 mm Hg 35%
19:00 +41°C° 0 mm 4 m/s 701 mm Hg 42%
20:00 +38°C° 0 mm 4 m/s 701 mm Hg 48%
21:00 +38°C° 0 mm 4 m/s 701 mm Hg 51%
22:00 +37°C° 0 mm 3 m/s 701 mm Hg 54%
23:00 +36°C° 0 mm 3 m/s 702 mm Hg 57%
Mostrare altro